Year,Month,Day,Hour,Minute,Value (Times are PST for windspeed in km/hr)
2011,02,08,00,00,6.10
2011,02,08,00,01,10.10
2011,02,08,00,02,12.10
2011,02,08,00,03,6.90
2011,02,08,00,04,8.90
2011,02,08,00,05,10.10
2011,02,08,00,06,9.50
2011,02,08,00,07,7.70
2011,02,08,00,08,6.40
2011,02,08,00,09,11.50
2011,02,08,00,10,16.20
2011,02,08,00,11,22.10
2011,02,08,00,12,18.40
2011,02,08,00,13,15.60
2011,02,08,00,14,8.70
2011,02,08,00,15,5.50
2011,02,08,00,16,7.40
2011,02,08,00,17,13.80
2011,02,08,00,18,15.90
2011,02,08,00,19,15.20
2011,02,08,00,20,8.90
2011,02,08,00,21,7.60
2011,02,08,00,22,4.80
2011,02,08,00,23,5.10
2011,02,08,00,24,8.50
2011,02,08,00,25,3.90
2011,02,08,00,26,8.40
2011,02,08,00,27,11.60
2011,02,08,00,28,7.20
2011,02,08,00,29,7.10
2011,02,08,00,30,7.50
2011,02,08,00,31,12.60
2011,02,08,00,32,8.40
2011,02,08,00,33,7.90
2011,02,08,00,34,9.00
2011,02,08,00,35,10.20
2011,02,08,00,36,8.20
2011,02,08,00,37,5.70
2011,02,08,00,38,8.90
2011,02,08,00,39,6.40
2011,02,08,00,40,16.20
2011,02,08,00,41,7.30
2011,02,08,00,42,5.10
2011,02,08,00,43,5.90
2011,02,08,00,44,12.00
2011,02,08,00,45,13.00
2011,02,08,00,46,6.50
2011,02,08,00,47,5.80
2011,02,08,00,48,10.20
2011,02,08,00,49,9.20
2011,02,08,00,50,11.30
2011,02,08,00,51,10.40
2011,02,08,00,52,10.90
2011,02,08,00,53,11.60
2011,02,08,00,54,5.30
2011,02,08,00,55,6.40
2011,02,08,00,56,5.60
2011,02,08,00,57,7.50
2011,02,08,00,58,15.10
2011,02,08,00,59,11.30
2011,02,08,01,00,7.60
2011,02,08,01,01,6.80
2011,02,08,01,02,14.00
2011,02,08,01,03,10.10
2011,02,08,01,04,9.10
2011,02,08,01,05,9.30
2011,02,08,01,06,9.00
2011,02,08,01,07,15.30
2011,02,08,01,08,12.80
2011,02,08,01,09,13.80
2011,02,08,01,10,7.80
2011,02,08,01,11,7.60
2011,02,08,01,12,14.20
2011,02,08,01,13,8.80
2011,02,08,01,14,11.60
2011,02,08,01,15,12.00
2011,02,08,01,16,11.60
2011,02,08,01,17,14.30
2011,02,08,01,18,14.60
2011,02,08,01,19,12.60
2011,02,08,01,20,11.00
2011,02,08,01,21,13.60
2011,02,08,01,22,13.60
2011,02,08,01,23,13.50
2011,02,08,01,24,14.20
2011,02,08,01,25,13.20
2011,02,08,01,26,12.00
2011,02,08,01,27,11.40
2011,02,08,01,28,14.10
2011,02,08,01,29,13.90
2011,02,08,01,30,13.00
2011,02,08,01,31,12.70
2011,02,08,01,32,15.70
2011,02,08,01,33,13.20
2011,02,08,01,34,8.00
2011,02,08,01,35,12.90
2011,02,08,01,36,15.90
2011,02,08,01,37,13.50
2011,02,08,01,38,11.60
2011,02,08,01,39,10.50
2011,02,08,01,40,18.30
2011,02,08,01,41,21.20
2011,02,08,01,42,17.50
2011,02,08,01,43,13.30
2011,02,08,01,44,12.40
2011,02,08,01,45,12.70
2011,02,08,01,46,9.00
2011,02,08,01,47,13.30
2011,02,08,01,48,10.50
2011,02,08,01,49,9.50
2011,02,08,01,50,12.10
2011,02,08,01,51,5.50
2011,02,08,01,52,10.10
2011,02,08,01,53,10.90
2011,02,08,01,54,4.40
2011,02,08,01,55,6.10
2011,02,08,01,56,8.30
2011,02,08,01,57,6.40
2011,02,08,01,58,16.00
2011,02,08,01,59,7.50
2011,02,08,02,00,7.90
2011,02,08,02,01,6.40
2011,02,08,02,02,7.60
2011,02,08,02,03,5.90
2011,02,08,02,04,8.30
2011,02,08,02,05,6.40
2011,02,08,02,06,2.10
2011,02,08,02,07,6.40
2011,02,08,02,08,5.00
2011,02,08,02,09,9.00
2011,02,08,02,10,10.00
2011,02,08,02,11,13.70
2011,02,08,02,12,6.70
2011,02,08,02,13,8.40
2011,02,08,02,14,8.40
2011,02,08,02,15,9.70
2011,02,08,02,16,11.40
2011,02,08,02,17,12.00
2011,02,08,02,18,7.40
2011,02,08,02,19,3.50
2011,02,08,02,20,12.60
2011,02,08,02,21,13.20
2011,02,08,02,22,8.60
2011,02,08,02,23,5.20
2011,02,08,02,24,3.20
2011,02,08,02,25,3.30
2011,02,08,02,26,8.00
2011,02,08,02,27,14.70
2011,02,08,02,28,11.70
2011,02,08,02,29,10.80
2011,02,08,02,30,15.90
2011,02,08,02,31,11.70
2011,02,08,02,32,8.70
2011,02,08,02,33,11.10
2011,02,08,02,34,8.20
2011,02,08,02,35,10.60
2011,02,08,02,36,8.70
2011,02,08,02,37,6.30
2011,02,08,02,38,13.20
2011,02,08,02,39,10.30
2011,02,08,02,40,11.60
2011,02,08,02,41,6.10
2011,02,08,02,42,5.80
2011,02,08,02,43,7.70
2011,02,08,02,44,8.30
2011,02,08,02,45,5.40
2011,02,08,02,46,5.10
2011,02,08,02,47,12.90
2011,02,08,02,48,12.40
2011,02,08,02,49,7.20
2011,02,08,02,50,6.70
2011,02,08,02,51,7.50
2011,02,08,02,52,3.40
2011,02,08,02,53,7.20
2011,02,08,02,54,7.60
2011,02,08,02,55,9.70
2011,02,08,02,56,8.50
2011,02,08,02,57,6.20
2011,02,08,02,58,4.50
2011,02,08,02,59,5.60
2011,02,08,03,00,12.10
2011,02,08,03,01,17.10
2011,02,08,03,02,17.00
2011,02,08,03,06,10.90
2011,02,08,03,07,10.50
2011,02,08,03,08,7.60
2011,02,08,03,09,10.60
2011,02,08,03,10,9.70
2011,02,08,03,11,6.00
2011,02,08,03,12,5.00
2011,02,08,03,13,5.50
2011,02,08,03,14,8.40
2011,02,08,03,15,4.50
2011,02,08,03,16,3.50
2011,02,08,03,17,6.90
2011,02,08,03,18,8.30
2011,02,08,03,19,5.10
2011,02,08,03,20,4.00
2011,02,08,03,21,14.60
2011,02,08,03,22,9.00
2011,02,08,03,23,10.50
2011,02,08,03,24,7.60
2011,02,08,03,25,7.20
2011,02,08,03,26,13.50
2011,02,08,03,27,10.70
2011,02,08,03,28,7.10
2011,02,08,03,29,4.50
2011,02,08,03,30,3.60
2011,02,08,03,31,7.80
2011,02,08,03,32,10.10
2011,02,08,03,33,12.00
2011,02,08,03,34,6.10
2011,02,08,03,35,5.70
2011,02,08,03,36,7.90
2011,02,08,03,37,7.00
2011,02,08,03,38,7.30
2011,02,08,03,39,3.20
2011,02,08,03,40,7.10
2011,02,08,03,41,10.00
2011,02,08,03,42,6.30
2011,02,08,03,43,3.70
2011,02,08,03,44,5.50
2011,02,08,03,45,4.30
2011,02,08,03,46,3.30
2011,02,08,03,47,7.10
2011,02,08,03,48,5.10
2011,02,08,03,49,4.30
2011,02,08,03,50,1.50
2011,02,08,03,51,4.70
2011,02,08,03,52,14.00
2011,02,08,03,53,9.70
2011,02,08,03,54,11.30
2011,02,08,03,55,6.50
2011,02,08,03,56,4.00
2011,02,08,03,57,5.10
2011,02,08,03,58,7.00
2011,02,08,03,59,3.80
2011,02,08,04,00,5.00
2011,02,08,04,01,3.50
2011,02,08,04,02,12.20
2011,02,08,04,03,6.40
2011,02,08,04,04,7.90
2011,02,08,04,05,6.00
2011,02,08,04,06,3.00
2011,02,08,04,07,7.00
2011,02,08,04,08,4.20
2011,02,08,04,09,3.00
2011,02,08,04,10,7.10
2011,02,08,04,11,6.90
2011,02,08,04,12,12.10
2011,02,08,04,13,8.90
2011,02,08,04,14,4.70
2011,02,08,04,15,5.90
2011,02,08,04,16,4.80
2011,02,08,04,17,8.00
2011,02,08,04,18,5.50
2011,02,08,04,19,3.70
2011,02,08,04,20,6.00
2011,02,08,04,21,7.60
2011,02,08,04,22,7.90
2011,02,08,04,23,9.30
2011,02,08,04,24,6.90
2011,02,08,04,25,4.70
2011,02,08,04,26,4.10
2011,02,08,04,27,8.90
2011,02,08,04,28,14.40
2011,02,08,04,29,6.40
2011,02,08,04,30,4.10
2011,02,08,04,31,5.30
2011,02,08,04,32,7.10
2011,02,08,04,33,8.40
2011,02,08,04,34,5.40
2011,02,08,04,35,10.70
2011,02,08,04,36,12.30
2011,02,08,04,37,7.30
2011,02,08,04,38,7.80
2011,02,08,04,39,9.70
2011,02,08,04,40,9.30
2011,02,08,04,41,8.70
2011,02,08,04,42,5.60
2011,02,08,04,43,5.20
2011,02,08,04,44,3.30
2011,02,08,04,45,5.60
2011,02,08,04,46,6.40
2011,02,08,04,47,6.40
2011,02,08,04,48,9.40
2011,02,08,04,49,6.40
2011,02,08,04,50,8.50
2011,02,08,04,51,5.20
2011,02,08,04,52,6.80
2011,02,08,04,53,9.80
2011,02,08,04,54,7.60
2011,02,08,04,55,4.20
2011,02,08,04,56,12.70
2011,02,08,04,57,11.50
2011,02,08,04,58,5.80
2011,02,08,04,59,5.00
2011,02,08,05,00,3.20
2011,02,08,05,01,10.10
2011,02,08,05,02,9.70
2011,02,08,05,03,11.20
2011,02,08,05,04,8.40
2011,02,08,05,05,8.90
2011,02,08,05,06,7.30
2011,02,08,05,07,8.00
2011,02,08,05,08,9.30
2011,02,08,05,09,10.00
2011,02,08,05,10,13.20
2011,02,08,05,11,7.40
2011,02,08,05,12,6.70
2011,02,08,05,13,6.80
2011,02,08,05,14,5.40
2011,02,08,05,15,4.40
2011,02,08,05,16,9.50
2011,02,08,05,17,8.30
2011,02,08,05,18,9.40
2011,02,08,05,19,3.60
2011,02,08,05,20,3.50
2011,02,08,05,21,5.80
2011,02,08,05,22,7.10
2011,02,08,05,23,6.20
2011,02,08,05,24,4.90
2011,02,08,05,25,3.10
2011,02,08,05,26,2.20
2011,02,08,05,27,4.80
2011,02,08,05,28,2.10
2011,02,08,05,29,2.80
2011,02,08,05,30,4.40
2011,02,08,05,31,4.30
2011,02,08,05,32,7.80
2011,02,08,05,33,6.80
2011,02,08,05,34,7.40
2011,02,08,05,35,9.00
2011,02,08,05,36,3.50
2011,02,08,05,37,7.20
2011,02,08,05,38,5.60
2011,02,08,05,39,6.70
2011,02,08,05,40,8.50
2011,02,08,05,41,10.90
2011,02,08,05,42,8.50
2011,02,08,05,43,4.20
2011,02,08,05,44,2.60
2011,02,08,05,45,3.80
2011,02,08,05,46,5.60
2011,02,08,05,47,6.00
2011,02,08,05,48,4.90
2011,02,08,05,49,1.10
2011,02,08,05,50,2.10
2011,02,08,05,51,2.90
2011,02,08,05,52,4.30
2011,02,08,05,53,4.50
2011,02,08,05,54,5.70
2011,02,08,05,55,4.30
2011,02,08,05,56,5.10
2011,02,08,05,57,8.50
2011,02,08,05,58,8.10
2011,02,08,05,59,9.90
2011,02,08,06,00,7.80
2011,02,08,06,01,5.60
2011,02,08,06,02,2.80
2011,02,08,06,03,3.40
2011,02,08,06,04,2.80
2011,02,08,06,05,3.50
2011,02,08,06,06,3.50
2011,02,08,06,07,3.80
2011,02,08,06,08,3.00
2011,02,08,06,09,3.50
2011,02,08,06,10,2.90
2011,02,08,06,11,1.90
2011,02,08,06,12,1.80
2011,02,08,06,13,5.80
2011,02,08,06,14,3.20
2011,02,08,06,15,4.90
2011,02,08,06,16,9.20
2011,02,08,06,17,10.30
2011,02,08,06,18,3.70
2011,02,08,06,19,4.60
2011,02,08,06,20,4.30
2011,02,08,06,21,4.80
2011,02,08,06,22,5.70
2011,02,08,06,23,4.80
2011,02,08,06,24,4.30
2011,02,08,06,25,3.10
2011,02,08,06,26,5.70
2011,02,08,06,27,5.10
2011,02,08,06,28,3.70
2011,02,08,06,29,9.70
2011,02,08,06,30,7.80
2011,02,08,06,31,5.60
2011,02,08,06,32,4.70
2011,02,08,06,33,4.70
2011,02,08,06,34,1.70
2011,02,08,06,35,3.70
2011,02,08,06,36,2.10
2011,02,08,06,37,4.30
2011,02,08,06,38,2.70
2011,02,08,06,39,2.90
2011,02,08,06,40,1.00
2011,02,08,06,41,1.60
2011,02,08,06,42,3.90
2011,02,08,06,43,3.00
2011,02,08,06,44,3.30
2011,02,08,06,45,3.80
2011,02,08,06,46,3.80
2011,02,08,06,47,6.20
2011,02,08,06,48,4.50
2011,02,08,06,49,4.90
2011,02,08,06,50,3.00
2011,02,08,06,51,1.40
2011,02,08,06,52,2.60
2011,02,08,06,53,2.40
2011,02,08,06,54,3.20
2011,02,08,06,55,3.80
2011,02,08,06,56,3.50
2011,02,08,06,57,2.30
2011,02,08,06,58,0.80
2011,02,08,06,59,3.20
2011,02,08,07,00,3.90
2011,02,08,07,01,5.20
2011,02,08,07,02,5.30
2011,02,08,07,03,5.10
2011,02,08,07,04,3.90
2011,02,08,07,05,0.90
2011,02,08,07,06,4.40
2011,02,08,07,07,5.90
2011,02,08,07,08,4.20
2011,02,08,07,09,3.00
2011,02,08,07,10,2.40
2011,02,08,07,11,3.40
2011,02,08,07,12,3.20
2011,02,08,07,13,4.90
2011,02,08,07,14,2.20
2011,02,08,07,15,3.20
2011,02,08,07,16,1.60
2011,02,08,07,17,3.00
2011,02,08,07,18,1.70
2011,02,08,07,19,2.40
2011,02,08,07,20,0.30
2011,02,08,07,21,1.80
2011,02,08,07,22,4.10
2011,02,08,07,23,4.60
2011,02,08,07,24,4.20
2011,02,08,07,25,1.30
2011,02,08,07,26,2.70
2011,02,08,07,27,4.80
2011,02,08,07,28,3.30
2011,02,08,07,29,3.70
2011,02,08,07,30,4.20
2011,02,08,07,31,3.20
2011,02,08,07,32,1.60
2011,02,08,07,33,3.30
2011,02,08,07,34,0.70
2011,02,08,07,35,1.20
2011,02,08,07,36,0.10
2011,02,08,07,37,0.70
2011,02,08,07,38,0.10
2011,02,08,07,39,0.70
2011,02,08,07,40,3.90
2011,02,08,07,41,5.90
2011,02,08,07,42,7.30
2011,02,08,07,43,5.10
2011,02,08,07,44,3.00
2011,02,08,07,45,1.60
2011,02,08,07,46,1.80
2011,02,08,07,47,3.50
2011,02,08,07,48,1.70
2011,02,08,07,49,4.30
2011,02,08,07,50,5.60
2011,02,08,07,51,2.30
2011,02,08,07,52,2.70
2011,02,08,07,53,7.50
2011,02,08,07,54,6.80
2011,02,08,07,55,3.50
2011,02,08,07,56,3.60
2011,02,08,07,57,1.90
2011,02,08,07,58,2.40
2011,02,08,07,59,1.90
2011,02,08,08,00,2.60
2011,02,08,08,01,2.60
2011,02,08,08,02,1.40
2011,02,08,08,03,3.10
2011,02,08,08,04,0.20
2011,02,08,08,05,1.00
2011,02,08,08,06,4.10
2011,02,08,08,07,3.40
2011,02,08,08,08,3.10
2011,02,08,08,09,4.30
2011,02,08,08,10,2.50
2011,02,08,08,11,6.40
2011,02,08,08,12,6.60
2011,02,08,08,13,2.90
2011,02,08,08,14,0.50
2011,02,08,08,15,0.90
2011,02,08,08,16,2.40
2011,02,08,08,17,4.30
2011,02,08,08,18,5.80
2011,02,08,08,19,7.10
2011,02,08,08,20,3.70
2011,02,08,08,21,3.10
2011,02,08,08,22,5.40
2011,02,08,08,23,3.80
2011,02,08,08,24,4.40
2011,02,08,08,25,5.20
2011,02,08,08,26,5.10
2011,02,08,08,27,6.00
2011,02,08,08,28,13.90
2011,02,08,08,29,8.00
2011,02,08,08,30,4.10
2011,02,08,08,31,6.40
2011,02,08,08,32,5.30
2011,02,08,08,33,4.50
2011,02,08,08,34,7.10
2011,02,08,08,35,8.90
2011,02,08,08,36,10.80
2011,02,08,08,37,6.80
2011,02,08,08,38,3.10
2011,02,08,08,39,6.70
2011,02,08,08,40,6.10
2011,02,08,08,41,6.00
2011,02,08,08,42,3.50
2011,02,08,08,43,9.80
2011,02,08,08,44,7.50
2011,02,08,08,45,4.50
2011,02,08,08,46,4.30
2011,02,08,08,47,4.90
2011,02,08,08,48,1.60
2011,02,08,08,49,4.60
2011,02,08,08,50,3.40
2011,02,08,08,51,6.80
2011,02,08,08,52,3.00
2011,02,08,08,53,2.00
2011,02,08,08,54,0.20
2011,02,08,08,55,4.20
2011,02,08,08,56,3.20
2011,02,08,08,57,6.30
2011,02,08,08,58,3.30
2011,02,08,08,59,5.60
2011,02,08,09,00,7.00
2011,02,08,09,01,3.70
2011,02,08,09,02,4.40
2011,02,08,09,03,3.80
2011,02,08,09,04,1.90
2011,02,08,09,05,1.10
2011,02,08,09,06,0.00
2011,02,08,09,07,5.90
2011,02,08,09,08,3.70
2011,02,08,09,09,1.40
2011,02,08,09,10,4.00
2011,02,08,09,11,4.30
2011,02,08,09,12,6.90
2011,02,08,09,13,3.80
2011,02,08,09,14,2.20
2011,02,08,09,15,8.00
2011,02,08,09,16,11.30
2011,02,08,09,17,7.50
2011,02,08,09,18,7.40
2011,02,08,09,19,9.00
2011,02,08,09,20,6.20
2011,02,08,09,21,6.30
2011,02,08,09,22,10.10
2011,02,08,09,23,6.60
2011,02,08,09,24,4.90
2011,02,08,09,25,4.60
2011,02,08,09,26,7.60
2011,02,08,09,27,8.60
2011,02,08,09,28,7.20
2011,02,08,09,29,5.90
2011,02,08,09,30,3.10
2011,02,08,09,31,5.20
2011,02,08,09,32,4.70
2011,02,08,09,33,4.20
2011,02,08,09,34,3.10
2011,02,08,09,35,5.10
2011,02,08,09,36,4.70
2011,02,08,09,37,10.40
2011,02,08,09,38,4.60
2011,02,08,09,39,5.50
2011,02,08,09,40,7.20
2011,02,08,09,41,11.80
2011,02,08,09,42,9.50
2011,02,08,09,43,7.00
2011,02,08,09,44,6.10
2011,02,08,09,45,4.80
2011,02,08,09,46,7.00
2011,02,08,09,47,8.70
2011,02,08,09,48,8.60
2011,02,08,09,49,12.30
2011,02,08,09,50,9.70
2011,02,08,09,51,8.50
2011,02,08,09,52,13.80
2011,02,08,09,53,7.30
2011,02,08,09,54,8.10
2011,02,08,09,55,10.00
2011,02,08,09,56,8.20
2011,02,08,09,57,8.90
2011,02,08,09,58,6.70
2011,02,08,09,59,11.60
2011,02,08,10,00,10.50
2011,02,08,10,01,5.50
2011,02,08,10,02,8.50
2011,02,08,10,03,10.70
2011,02,08,10,04,10.90
2011,02,08,10,05,6.10
2011,02,08,10,06,10.10
2011,02,08,10,07,13.60
2011,02,08,10,08,11.70
2011,02,08,10,09,6.50
2011,02,08,10,10,4.20
2011,02,08,10,11,8.60
2011,02,08,10,12,5.40
2011,02,08,10,13,9.40
2011,02,08,10,14,5.20
2011,02,08,10,15,2.00
2011,02,08,10,16,1.40
2011,02,08,10,17,3.00
2011,02,08,10,18,1.90
2011,02,08,10,19,7.20
2011,02,08,10,20,11.60
2011,02,08,10,21,11.10
2011,02,08,10,22,12.00
2011,02,08,10,23,8.10
2011,02,08,10,24,8.50
2011,02,08,10,25,9.10
2011,02,08,10,26,5.60
2011,02,08,10,27,3.60
2011,02,08,10,28,10.00
2011,02,08,10,29,7.10
2011,02,08,10,30,5.60
2011,02,08,10,31,5.30
2011,02,08,10,32,6.20
2011,02,08,10,33,8.10
2011,02,08,10,34,7.10
2011,02,08,10,35,13.00
2011,02,08,10,36,11.20
2011,02,08,10,37,7.10
2011,02,08,10,38,5.10
2011,02,08,10,39,8.00
2011,02,08,10,40,9.30
2011,02,08,10,41,14.80
2011,02,08,10,42,8.50
2011,02,08,10,43,12.70
2011,02,08,10,44,11.50
2011,02,08,10,45,10.70
2011,02,08,10,46,7.70
2011,02,08,10,47,7.90
2011,02,08,10,48,6.70
2011,02,08,10,49,3.50
2011,02,08,10,50,7.70
2011,02,08,10,51,4.80
2011,02,08,10,52,4.70
2011,02,08,10,53,5.40
2011,02,08,10,54,8.70
2011,02,08,10,55,9.30
2011,02,08,10,56,3.50
2011,02,08,10,57,1.70
2011,02,08,10,58,6.40
2011,02,08,10,59,9.30
2011,02,08,11,00,6.10
2011,02,08,11,01,4.10
2011,02,08,11,02,10.70
2011,02,08,11,03,10.30
2011,02,08,11,04,6.30
2011,02,08,11,05,7.20
2011,02,08,11,06,9.20
2011,02,08,11,07,11.40
2011,02,08,11,08,9.40
2011,02,08,11,09,7.00
2011,02,08,11,10,6.00
2011,02,08,11,11,6.60
2011,02,08,11,12,4.60
2011,02,08,11,13,7.60
2011,02,08,11,14,5.20
2011,02,08,11,15,6.20
2011,02,08,11,16,12.20
2011,02,08,11,17,8.00
2011,02,08,11,18,5.10
2011,02,08,11,19,6.30
2011,02,08,11,20,6.30
2011,02,08,11,21,11.10
2011,02,08,11,22,13.80
2011,02,08,11,23,7.60
2011,02,08,11,24,9.10
2011,02,08,11,25,10.90
2011,02,08,11,26,6.30
2011,02,08,11,27,8.30
2011,02,08,11,28,10.40
2011,02,08,11,29,7.90
2011,02,08,11,30,8.50
2011,02,08,11,31,11.10
2011,02,08,11,32,12.10
2011,02,08,11,33,9.60
2011,02,08,11,34,10.80
2011,02,08,11,35,11.80
2011,02,08,11,36,12.60
2011,02,08,11,37,8.90
2011,02,08,11,38,5.90
2011,02,08,11,39,5.10
2011,02,08,11,40,9.60
2011,02,08,11,41,7.30
2011,02,08,11,42,3.10
2011,02,08,11,43,6.90
2011,02,08,11,44,8.90
2011,02,08,11,45,4.10
2011,02,08,11,46,4.80
2011,02,08,11,47,6.30
2011,02,08,11,48,9.80
2011,02,08,11,49,8.70
2011,02,08,11,50,9.20
2011,02,08,11,51,7.80
2011,02,08,11,52,6.50
2011,02,08,11,53,3.40
2011,02,08,11,54,7.60
2011,02,08,11,55,5.30
2011,02,08,11,56,3.90
2011,02,08,11,57,10.60
2011,02,08,11,58,8.10
2011,02,08,11,59,9.50
2011,02,08,12,00,6.40
2011,02,08,12,01,5.30
2011,02,08,12,02,7.90
2011,02,08,12,03,4.70
2011,02,08,12,04,5.90
2011,02,08,12,05,5.40
2011,02,08,12,06,5.10
2011,02,08,12,07,6.40
2011,02,08,12,08,3.50
2011,02,08,12,09,8.00
2011,02,08,12,10,8.70
2011,02,08,12,11,6.60
2011,02,08,12,12,6.70
2011,02,08,12,13,10.40
2011,02,08,12,14,8.10
2011,02,08,12,15,10.40
2011,02,08,12,16,10.10
2011,02,08,12,17,7.40
2011,02,08,12,18,10.10
2011,02,08,12,19,12.10
2011,02,08,12,20,5.30
2011,02,08,12,21,8.40
2011,02,08,12,22,9.60
2011,02,08,12,23,7.50
2011,02,08,12,24,7.80
2011,02,08,12,25,5.20
2011,02,08,12,26,6.80
2011,02,08,12,27,9.70
2011,02,08,12,28,8.00
2011,02,08,12,29,10.90
2011,02,08,12,30,5.20
2011,02,08,12,31,10.10
2011,02,08,12,32,11.30
2011,02,08,12,33,11.30
2011,02,08,12,34,7.80
2011,02,08,12,35,6.30
2011,02,08,12,36,4.50
2011,02,08,12,37,2.20
2011,02,08,12,38,4.20
2011,02,08,12,39,1.40
2011,02,08,12,40,5.60
2011,02,08,12,41,6.00
2011,02,08,12,42,6.00
2011,02,08,12,43,9.10
2011,02,08,12,44,8.60
2011,02,08,12,45,8.10
2011,02,08,12,46,5.90
2011,02,08,12,47,9.40
2011,02,08,12,48,8.90
2011,02,08,12,49,14.30
2011,02,08,12,50,9.10
2011,02,08,12,51,6.40
2011,02,08,12,52,10.70
2011,02,08,12,53,9.10
2011,02,08,12,54,6.40
2011,02,08,12,55,7.10
2011,02,08,12,56,7.60
2011,02,08,12,57,8.80
2011,02,08,12,58,4.50
2011,02,08,12,59,4.00
2011,02,08,13,00,4.80
2011,02,08,13,01,6.70
2011,02,08,13,02,8.70
2011,02,08,13,03,6.80
2011,02,08,13,04,5.70
2011,02,08,13,05,10.40
2011,02,08,13,06,6.80
2011,02,08,13,07,7.40
2011,02,08,13,08,6.10
2011,02,08,13,09,4.30
2011,02,08,13,10,6.10
2011,02,08,13,11,11.80
2011,02,08,13,12,9.00
2011,02,08,13,13,8.10
2011,02,08,13,14,9.60
2011,02,08,13,15,10.10
2011,02,08,13,16,10.40
2011,02,08,13,17,12.70
2011,02,08,13,18,9.90
2011,02,08,13,19,12.30
2011,02,08,13,20,7.90
2011,02,08,13,21,6.20
2011,02,08,13,22,9.60
2011,02,08,13,23,9.30
2011,02,08,13,24,6.80
2011,02,08,13,25,9.80
2011,02,08,13,26,10.30
2011,02,08,13,27,10.40
2011,02,08,13,28,5.70
2011,02,08,13,29,8.80
2011,02,08,13,30,8.40
2011,02,08,13,31,9.10
2011,02,08,13,32,7.10
2011,02,08,13,33,6.20
2011,02,08,13,34,6.10
2011,02,08,13,35,6.40
2011,02,08,13,36,7.70
2011,02,08,13,37,6.00
2011,02,08,13,38,4.80
2011,02,08,13,39,4.10
2011,02,08,13,40,6.70
2011,02,08,13,41,9.00
2011,02,08,13,42,9.00
2011,02,08,13,43,8.30
2011,02,08,13,44,5.80
2011,02,08,13,45,7.40
2011,02,08,13,46,4.70
2011,02,08,13,47,10.10
2011,02,08,13,48,8.70
2011,02,08,13,49,11.30
2011,02,08,13,50,8.50
2011,02,08,13,51,8.60
2011,02,08,13,52,10.50
2011,02,08,13,53,10.50
2011,02,08,13,54,11.20
2011,02,08,13,55,10.60
2011,02,08,13,56,10.50
2011,02,08,13,57,9.70
2011,02,08,13,58,7.30
2011,02,08,13,59,5.90
2011,02,08,14,00,5.10
2011,02,08,14,01,7.50
2011,02,08,14,02,5.60
2011,02,08,14,03,3.40
2011,02,08,14,04,8.80
2011,02,08,14,05,9.20
2011,02,08,14,06,6.10
2011,02,08,14,07,6.10
2011,02,08,14,08,6.20
2011,02,08,14,09,5.20
2011,02,08,14,10,3.90
2011,02,08,14,11,3.50
2011,02,08,14,12,5.10
2011,02,08,14,13,11.00
2011,02,08,14,14,9.30
2011,02,08,14,15,5.90
2011,02,08,14,16,5.20
2011,02,08,14,17,6.40
2011,02,08,14,18,5.00
2011,02,08,14,19,8.10
2011,02,08,14,20,11.30
2011,02,08,14,21,7.50
2011,02,08,14,22,10.00
2011,02,08,14,23,7.00
2011,02,08,14,24,7.50
2011,02,08,14,25,7.50
2011,02,08,14,26,6.60
2011,02,08,14,27,8.50
2011,02,08,14,28,4.90
2011,02,08,14,29,5.50
2011,02,08,14,30,8.40
2011,02,08,14,31,8.50
2011,02,08,14,32,8.70
2011,02,08,14,33,5.60
2011,02,08,14,34,9.30
2011,02,08,14,35,7.80
2011,02,08,14,36,7.10
2011,02,08,14,37,6.20
2011,02,08,14,38,9.30
2011,02,08,14,39,14.10
2011,02,08,14,40,11.30
2011,02,08,14,41,10.70
2011,02,08,14,42,11.10
2011,02,08,14,43,14.00
2011,02,08,14,44,11.70
2011,02,08,14,45,15.20
2011,02,08,14,46,8.90
2011,02,08,14,47,9.00
2011,02,08,14,48,12.70
2011,02,08,14,49,8.50
2011,02,08,14,50,9.70
2011,02,08,14,51,6.20
2011,02,08,14,52,9.70
2011,02,08,14,53,9.30
2011,02,08,14,54,10.70
2011,02,08,14,55,8.50
2011,02,08,14,56,7.70
2011,02,08,14,57,7.50
2011,02,08,14,58,6.90
2011,02,08,14,59,4.00
2011,02,08,15,00,5.30
2011,02,08,15,01,5.80
2011,02,08,15,02,6.50
2011,02,08,15,03,7.20
2011,02,08,15,04,8.30
2011,02,08,15,05,5.00
2011,02,08,15,06,8.70
2011,02,08,15,07,6.10
2011,02,08,15,08,5.20
2011,02,08,15,09,7.10
2011,02,08,15,10,9.40
2011,02,08,15,11,8.30
2011,02,08,15,12,6.00
2011,02,08,15,13,5.60
2011,02,08,15,14,9.60
2011,02,08,15,15,10.90
2011,02,08,15,16,8.60
2011,02,08,15,17,9.90
2011,02,08,15,18,13.00
2011,02,08,15,19,11.60
2011,02,08,15,20,8.30
2011,02,08,15,21,6.80
2011,02,08,15,22,11.30
2011,02,08,15,23,14.20
2011,02,08,15,24,11.70
2011,02,08,15,25,8.70
2011,02,08,15,26,10.60
2011,02,08,15,27,10.50
2011,02,08,15,28,6.50
2011,02,08,15,29,6.80
2011,02,08,15,30,2.60
2011,02,08,15,31,0.80
2011,02,08,15,32,3.00
2011,02,08,15,33,5.90
2011,02,08,15,34,9.20
2011,02,08,15,35,7.60
2011,02,08,15,36,7.30
2011,02,08,15,37,5.60
2011,02,08,15,38,4.20
2011,02,08,15,39,3.50
2011,02,08,15,40,2.80
2011,02,08,15,41,5.00
2011,02,08,15,42,7.90
2011,02,08,15,43,5.60
2011,02,08,15,44,3.80
2011,02,08,15,45,7.30
2011,02,08,15,46,6.00
2011,02,08,15,47,6.00
2011,02,08,15,48,3.90
2011,02,08,15,49,2.80
2011,02,08,15,50,1.20
2011,02,08,15,51,2.70
2011,02,08,15,52,3.80
2011,02,08,15,53,3.60
2011,02,08,15,54,4.20
2011,02,08,15,55,1.30
2011,02,08,15,56,2.20
2011,02,08,15,57,3.30
2011,02,08,15,58,4.30
2011,02,08,15,59,5.50
2011,02,08,16,00,2.20
2011,02,08,16,01,6.20
2011,02,08,16,02,4.20
2011,02,08,16,03,3.40
2011,02,08,16,04,4.30
2011,02,08,16,05,3.40
2011,02,08,16,06,1.90
2011,02,08,16,07,2.30
2011,02,08,16,08,5.30
2011,02,08,16,09,6.50
2011,02,08,16,10,6.80
2011,02,08,16,11,3.60
2011,02,08,16,12,3.20
2011,02,08,16,13,0.70
2011,02,08,16,14,1.20
2011,02,08,16,15,4.20
2011,02,08,16,16,1.90
2011,02,08,16,17,3.00
2011,02,08,16,18,3.70
2011,02,08,16,19,3.20
2011,02,08,16,20,2.10
2011,02,08,16,21,2.00
2011,02,08,16,22,2.80
2011,02,08,16,23,2.30
2011,02,08,16,24,2.30
2011,02,08,16,25,1.40
2011,02,08,16,26,3.70
2011,02,08,16,27,3.60
2011,02,08,16,28,3.60
2011,02,08,16,29,5.80
2011,02,08,16,30,4.10
2011,02,08,16,31,3.90
2011,02,08,16,32,2.10
2011,02,08,16,33,0.00
2011,02,08,16,34,1.20
2011,02,08,16,35,1.20
2011,02,08,16,36,2.20
2011,02,08,16,37,1.70
2011,02,08,16,38,1.50
2011,02,08,16,39,1.80
2011,02,08,16,40,0.20
2011,02,08,16,41,0.40
2011,02,08,16,42,0.60
2011,02,08,16,43,0.30
2011,02,08,16,44,2.10
2011,02,08,16,45,1.10
2011,02,08,16,46,0.80
2011,02,08,16,47,1.40
2011,02,08,16,48,1.70
2011,02,08,16,49,2.60
2011,02,08,16,50,1.60
2011,02,08,16,51,2.90
2011,02,08,16,52,2.40
2011,02,08,16,53,3.10
2011,02,08,16,54,1.60
2011,02,08,16,55,1.10
2011,02,08,16,56,1.20
2011,02,08,16,57,0.80
2011,02,08,16,58,0.20
2011,02,08,16,59,1.00
2011,02,08,17,00,3.40
2011,02,08,17,01,3.00
2011,02,08,17,02,1.20
2011,02,08,17,03,0.00
2011,02,08,17,04,0.10
2011,02,08,17,05,1.50
2011,02,08,17,06,0.00
2011,02,08,17,07,0.10
2011,02,08,17,08,0.80
2011,02,08,17,09,0.70
2011,02,08,17,10,0.10
2011,02,08,17,11,1.80
2011,02,08,17,12,2.10
2011,02,08,17,13,2.70
2011,02,08,17,14,0.70
2011,02,08,17,15,0.80
2011,02,08,17,16,0.50
2011,02,08,17,17,0.40
2011,02,08,17,18,0.90
2011,02,08,17,19,1.50
2011,02,08,17,20,0.50
2011,02,08,17,21,1.00
2011,02,08,17,22,0.10
2011,02,08,17,23,1.10
2011,02,08,17,24,0.80
2011,02,08,17,25,0.80
2011,02,08,17,26,1.10
2011,02,08,17,27,1.50
2011,02,08,17,28,1.90
2011,02,08,17,29,2.10
2011,02,08,17,30,1.80
2011,02,08,17,31,1.00
2011,02,08,17,32,0.00
2011,02,08,17,33,0.00
2011,02,08,17,34,0.10
2011,02,08,17,35,0.20
2011,02,08,17,36,0.10
2011,02,08,17,37,0.20
2011,02,08,17,38,0.20
2011,02,08,17,39,0.20
2011,02,08,17,40,0.30
2011,02,08,17,41,0.10
2011,02,08,17,42,0.00
2011,02,08,17,43,0.80
2011,02,08,17,44,0.10
2011,02,08,17,45,0.40
2011,02,08,17,46,0.40
2011,02,08,17,47,0.60
2011,02,08,17,48,1.40
2011,02,08,17,49,0.20
2011,02,08,17,50,0.00
2011,02,08,17,51,0.00
2011,02,08,17,52,0.00
2011,02,08,17,53,0.00
2011,02,08,17,54,0.00
2011,02,08,17,55,0.00
2011,02,08,17,56,0.00
2011,02,08,17,57,0.00
2011,02,08,17,58,0.00
2011,02,08,17,59,0.00
2011,02,08,18,00,0.00